Regional Weather Roundup
Issued by NWS Northern Indiana

Home | Current Version | Previous Version | Graphics & Text | Print | Product List | Glossary On
Versions: 1 2 3 4 5 6 7 8 9 10 11 12 13 14 15 16 17 18 19 20 21 22 23 24 25 26 27 28 29 30 31 32 33 34 35 36 37 38 39 40 41 42 43 44 45 46 47 48 49 50
000
ASUS43 KIWX 231610
RWRIWX

KIWX WEATHER ROUNDUP
NATIONAL WEATHER SERVICE NORTHERN INDIANA
1200 PM EDT SUN APR 23 2017

NOTE: "FAIR" INDICATES FEW OR NO CLOUDS BELOW 12,000 FEET WITH NO
SIGNIFICANT WEATHER AND/OR OBSTRUCTIONS TO VISIBILITY.

* THESE STATIONS ARE NOT UNDER NWS QUALITY CONTROL. THEY ALSO MAY NOT
  REPORT WEATHER SUCH AS PRECIPITATION OR FOG.

INZ001>027-231700-
NORTHERN INDIANA

CITY           SKY/WX    TMP DP  RH WIND       PRES   REMARKS
GARY*          SUNNY     63  25  23 N8        30.14S
VALPARAISO     SUNNY     64  33  31 N8        30.12F
MICHIGAN CITY* SUNNY     59  32  36 NW5       30.14S
LAPORTE*       SUNNY     61  33  34 N6        30.13S
KNOX*          SUNNY     61   5  11 NE10      30.12S
SOUTH BEND     SUNNY     62  35  36 N7        30.12F
ELKHART*       SUNNY     63  30  29 N6        30.12S
GOSHEN         SUNNY     61  34  36 E8        30.11F
MONTICELLO*    SUNNY     60  31  32 NE8       30.10F
LOGANSPORT*    SUNNY     59  32  36 NE10      30.11F
ROCHESTER*     SUNNY     63  32  31 E10       30.11F
WARSAW*        SUNNY     61  36  39 E7        30.11F
ANGOLA*        SUNNY     61  52  72 E5        30.10F
FORT WAYNE     SUNNY     60  35  39 NE13      30.11S
HUNTINGTON*    SUNNY     58  32  37 NE8       30.11S
PERU/GRISSOM   SUNNY     60  35  39 NE8       30.09S
MARION*        SUNNY     57  32  38 E13G20    30.11R

$$
INZ028>050-231700-
CENTRAL INDIANA

CITY           SKY/WX    TMP DP  RH WIND       PRES   REMARKS
LAFAYETTE      SUNNY     58  35  42 NE13      30.10S
KOKOMO*        SUNNY     59  33  37 NE10G20   30.11S
MUNCIE*        SUNNY     61  32  33 E13       30.09S
INDIANAPOLIS   MOSUNNY   59  34  39 NE9G20    30.08S

$$
MIZ043>046-050>051-056>058-064>065-071>073-077>080-231700-
SOUTHWEST LOWER MICHIGAN

CITY           SKY/WX    TMP DP  RH WIND       PRES   REMARKS
BATTLE CREEK   SUNNY     64  31  28 W7        30.12F
BENTON HARBOR  SUNNY     59  30  33 W6        30.13F
COLDWATER*     SUNNY     60  33  35 NE3       30.11F
HILLSDALE*     SUNNY     61  32  33 CALM      30.10F
HOLLAND        SUNNY     59  30  33 W8        30.14S
GRAND RAPIDS   MOSUNNY   62  33  33 W12       30.12F
KALAMAZOO      SUNNY     64  27  24 NW6       30.12F
STURGIS*       SUNNY     60  34  36 N6        30.11F
THREE RIVERS*  FAIR      61  32  34 CALM      30.12S

$$
OHZ001>008-015>018-024>025-231700-
NORTHWEST OHIO

CITY           SKY/WX    TMP DP  RH WIND       PRES   REMARKS
WAUSEON*       FAIR      61  30  31 NE7       30.11F
DEFIANCE       SUNNY     58  32  37 NE10      30.11F
FINDLAY        SUNNY     60  34  37 NE12      30.09F
TOLEDO EXPRESS SUNNY     60  25  26 VRB7      30.11F
TOLEDO METCALF SUNNY     59  36  42 NE8       30.13S
LIMA           SUNNY     59  38  45 E10       30.09S

$$
AND FOR LAKE MICHIGAN COASTAL AND OPEN LAKE BUOY OBSERVATIONS

STATION/POSITION TEMP    WIND        PRES    VSBY  WAVE
                 AIR SEA DIR/SP/G                  HT/PER
                 (F)     (DEG/KT/KT) (MB)    (MI)  (FT/S)
CALUMET HARBOR    53      60/  5/  6 1019.7F
MICHIGAN CITY     51     350/  4/  4   N/A
BURNS HARBOR      49      20/  4/  4 1021.0S
4 MI NW BRIDGMAN  47 49  350/  2/  4 1021.3          1

$$
&&




USA.gov is the U.S. government's official web portal to all federal, state and local government web resources and services.